TimeEDT,TemperatureF,Dew PointF,Humidity,Sea Level PressureIn,VisibilityMPH,Wind Direction,Wind SpeedMPH,Gust SpeedMPH,PrecipitationIn,Events,Conditions,WindDirDegrees,DateUTC
12:00 AM,82.4,77.0,84,30.03,6.2,Variable,1.2,-,N/A,,Scattered Clouds,0,2013-08-29 04:00:00
1:00 AM,80.6,77.0,89,30.01,-9999.0,Calm,Calm,-,N/A,,Scattered Clouds,0,2013-08-29 05:00:00
2:00 AM,81,78,89,30.00,9,Calm,Calm,,,,Scattered Clouds,,2013-08-29 06:00:00
2:00 AM,80.6,77.0,89,30.00,6.2,Calm,Calm,-,N/A,,Scattered Clouds,0,2013-08-29 06:00:00
3:00 AM,80.6,75.2,84,39.99,6.2,Calm,Calm,-,N/A,,Partly Cloudy,0,2013-08-29 07:00:00
4:00 AM,80.6,75.2,84,29.99,6.2,Calm,Calm,-,N/A,Rain,Light Rain Showers,0,2013-08-29 08:00:00
5:00 AM,80,78,91,30.00,8,Calm,Calm,,,,,,2013-08-29 09:00:00
5:00 AM,80.6,75.2,84,30.00,6.2,Calm,Calm,-,N/A,,Scattered Clouds,0,2013-08-29 09:00:00
5:25 AM,80.6,77.0,89,29.99,6.2,Calm,Calm,-,N/A,Thunderstorm,Light Thunderstorm,0,2013-08-29 09:25:00
6:00 AM,80.6,77.0,89,29.99,-9999.0,North,-9999.0,-,N/A,Thunderstorm,Light Thunderstorm,0,2013-08-29 10:00:00
7:00 AM,80.6,77.0,89,3.00,6.2,SE,3.5,-,N/A,Thunderstorm,Light Thunderstorm,140,2013-08-29 11:00:00
8:00 AM,81,78,90,30.02,8,,1.2,,,Thunderstorm,Thunderstorm,,2013-08-29 12:00:00
8:00 AM,80.6,78.8,94,30.01,6.2,Variable,1.2,-,N/A,Thunderstorm,Thunderstorm,0,2013-08-29 12:00:00
10:00 AM,82.4,75.2,79,30.03,6.2,East,3.5,-,N/A,,Mostly Cloudy,90,2013-08-29 14:00:00
11:00 AM,86,78,71,30.04,8,,1.2,,,,,,2013-08-29 15:00:00
11:00 AM,86.0,78.8,79,30.03,6.2,Variable,1.2,-,N/A,,Mostly Cloudy,0,2013-08-29 15:00:00
12:00 PM,86.0,77.0,74,30.02,6.2,NNE,5.8,-,N/A,,Mostly Cloudy,20,2013-08-29 16:00:00
1:00 PM,87.8,77.0,70,30.02,6.2,ESE,4.6,-,N/A,,Mostly Cloudy,120,2013-08-29 17:00:00
2:00 PM,87,78,70,30.02,8,East,4.6,,,,Partly Cloudy,100,2013-08-29 18:00:00
2:00 PM,87.8,78.8,75,30.01,6.2,East,4.6,-,N/A,,Mostly Cloudy,100,2013-08-29 18:00:00
2:20 PM,86.0,77.0,74,30.00,6.2,East,5.8,-,N/A,Thunderstorm,Thunderstorm,90,2013-08-29 18:20:00
3:00 PM,86.0,77.0,74,2.99,6.2,ENE,4.6,-,N/A,,Mostly Cloudy,60,2013-08-29 19:00:00
4:00 PM,84.2,77.0,79,29.99,6.2,SE,5.8,-,N/A,,Mostly Cloudy,130,2013-08-29 20:00:00
5:00 PM,83,80,88,29.99,7,ESE,3.5,,,Rain,Light Rain,110,2013-08-29 21:00:00
5:00 PM,82.4,80.6,94,-9999,6.2,ESE,3.5,-,N/A,Rain,Light Rain,110,2013-08-29 21:00:00
6:00 PM,82.4,77.0,84,29.95,6.2,SE,3.5,-,N/A,,Mostly Cloudy,130,2013-08-29 22:00:00
8:00 PM,83,80,86,29.98,9,South,3.5,,,,Partly Cloudy,180,2013-08-30 00:00:00
8:00 PM,84.2,78.8,84,29.98,6.2,South,3.5,-,N/A,,Mostly Cloudy,180,2013-08-30 00:00:00
9:00 PM,82.4,77.0,84,29.99,6.2,SSW,3.5,-,N/A,,Mostly Cloudy,200,2013-08-30 01:00:00
10:00 PM,80.6,77.0,89,30.01,6.2,Variable,2.3,-,N/A,,Mostly Cloudy,0,2013-08-30 02:00:00
11:00 PM,80,78,92,30.01,9,Calm,Calm,,,,Partly Cloudy,,2013-08-30 03:00:00
11:00 PM,80.6,78.8,94,30.01,6.2,Calm,Calm,-,N/A,,Mostly Cloudy,0,2013-08-30 03:00:00